Pocatello, ID

7:05 PM MDT on May 22, 2017 (GMT -0600)
Pocatello Regional

Weather History for KPIH - August, 2013

Change the Weather History Date:

Friday, August 23, 2013

  Actual Average Record
Temperature  
Mean Temperature 73 °F 68 °F  
Max Temperature 85 °F 86 °F 97 °F (1967)
Min Temperature 60 °F 50 °F 36 °F (1978)
Degree Days  
Heating Degree Days 0 1  
Month to date heating degree days 0 10  
Since 1 June heating degree days 90 161  
Since 1 July heating degree days 0 30  
Cooling Degree Days 8 4  
Month to date cooling degree days 177 122  
Year to date cooling degree days 571 345  
Since 1 June cooling degree days 562 340  
Growing Degree Days 22 (Base 50)    
Moisture  
Dew Point 51 °F    
Average Humidity 52    
Maximum Humidity 72    
Minimum Humidity 31    
Precipitation  
Precipitation T in 0.02 in 0.60 in (1987)
Month to date precipitation 0.04 0.43  
Year to date precipitation 3.86 7.89  
Snow  
Snow 0.00 in - - ()
Month to date snowfall 0.0  
Since 1 June snowfall 0.0  
Since 1 July snowfall 0.0  
Snow Depth 0.00 in    
Sea Level Pressure  
Sea Level Pressure 29.86 in    
Wind  
Wind Speed 7 mph (SE)    
Max Wind Speed 25 mph    
Max Gust Speed 31 mph    
Visibility 10 miles    
Events Rain , Thunderstorm    
T = Trace of Precipitation, MM = Missing Value Source: NWS Daily Summary

Daily Weather History Graph

Daily Weather History Graph

Search for Another Location

Airport or City:

Trip Planner

Search our weather history database for the weather conditions in past years. The results will help you decide how hot, cold, wet, or windy it might be!

Date:

Astronomy

Aug. 23, 2013 Rise Set
Actual Time 6:45 AM MDT 8:19 PM MDT
Civil Twilight 6:15 AM MDT 8:49 PM MDT
Nautical Twilight 5:39 AM MDT 9:25 PM MDT
Astronomical Twilight 5:00 AM MDT 10:03 PM MDT
Moon 9:33 PM MDT 9:51 AM MDT
Length of Visible Light 14h 33m
Length of Day
13h 33m
Waning Gibbous, 91% of the Moon is Illuminated
Aug 23
Waning Gibbous
Aug 28
Last Quarter
Sep 5
New
Sep 12
First Quarter
Sep 19
Full

Hourly Weather History & Observations

Time (MDT) Temp. Heat Index Dew Point Humidity Pressure Visibility Wind Dir Wind Speed Gust Speed Precip Events Conditions
12:53 AM 71.1 °F - 45.0 °F 39% 29.86 in 10.0 mi South 11.5 mph - N/A   Clear
1:53 AM 71.1 °F - 45.0 °F 39% 29.84 in 10.0 mi SE 10.4 mph - N/A   Clear
2:53 AM 71.1 °F - 45.0 °F 39% 29.83 in 10.0 mi NE 9.2 mph - N/A   Clear
3:53 AM 64.0 °F - 50.0 °F 60% 29.84 in 10.0 mi North 8.1 mph - N/A   Clear
4:53 AM 64.0 °F - 50.0 °F 60% 29.84 in 10.0 mi Calm Calm - N/A   Clear
5:53 AM 64.0 °F - 50.0 °F 60% 29.85 in 10.0 mi Calm Calm - N/A   Partly Cloudy
6:53 AM 61.0 °F - 51.1 °F 70% 29.85 in 10.0 mi NNE 3.5 mph - N/A   Clear
7:53 AM 62.1 °F - 52.0 °F 70% 29.86 in 10.0 mi Calm Calm - N/A   Clear
8:53 AM 70.0 °F - 52.0 °F 53% 29.87 in 10.0 mi NW 5.8 mph - N/A   Clear
9:53 AM 77.0 °F - 51.1 °F 40% 29.86 in 10.0 mi Calm Calm - N/A   Clear
10:53 AM 77.0 °F - 51.1 °F 40% 29.87 in 10.0 mi WSW 9.2 mph - N/A   Clear
11:53 AM 78.1 °F - 53.1 °F 42% 29.86 in 10.0 mi West 10.4 mph - N/A   Clear
12:53 PM 84.0 °F 82.5 °F 53.1 °F 34% 29.82 in 10.0 mi WNW 10.4 mph - N/A   Clear
1:30 PM 80.6 °F 80.5 °F 55.4 °F 42% 29.97 in 10.0 mi WNW 9.2 mph - 0.00 in Rain , Thunderstorm Light Thunderstorms and Rain
1:53 PM 82.9 °F 81.8 °F 53.1 °F 36% 29.81 in 10.0 mi Variable 4.6 mph - 0.00 in Rain , Thunderstorm Light Thunderstorms and Rain
2:53 PM 75.9 °F - 50.0 °F 40% 29.83 in 10.0 mi ESE 8.1 mph - 0.00 in   Scattered Clouds
3:03 PM 77.0 °F - 53.6 °F 44% 29.98 in 10.0 mi SSE 13.8 mph - 0.00 in Rain , Thunderstorm Light Thunderstorms and Rain
3:16 PM 80.6 °F - 51.8 °F 37% 29.96 in 10.0 mi SE 11.5 mph - 0.00 in Rain , Thunderstorm Light Thunderstorms and Rain
3:53 PM 82.0 °F - 51.1 °F 34% 29.80 in 10.0 mi East 12.7 mph - 0.00 in   Scattered Clouds
4:53 PM 75.0 °F - 50.0 °F 41% 29.83 in 10.0 mi SSE 15.0 mph 26.5 mph N/A Thunderstorm Thunderstorm
5:04 PM 78.8 °F - 51.8 °F 39% 29.97 in 10.0 mi SW 15.0 mph 19.6 mph N/A Thunderstorm Thunderstorm
5:53 PM 75.9 °F - 43.0 °F 31% 29.82 in 10.0 mi South 13.8 mph 21.9 mph N/A Thunderstorm Thunderstorm
6:53 PM 70.0 °F - 53.1 °F 55% 29.84 in 10.0 mi SE 11.5 mph - 0.00 in Rain , Thunderstorm Light Thunderstorms and Rain
6:59 PM 69.8 °F - 53.6 °F 56% 29.97 in 10.0 mi ESE 11.5 mph - N/A   Overcast
7:21 PM 71.6 °F - 51.8 °F 50% 29.98 in 10.0 mi Calm Calm - N/A Thunderstorm Thunderstorm
7:53 PM 69.1 °F - 54.0 °F 58% 29.85 in 10.0 mi SSE 3.5 mph - N/A   Mostly Cloudy
8:53 PM 66.9 °F - 53.1 °F 61% 29.83 in 10.0 mi ESE 10.4 mph - N/A   Clear
9:53 PM 68.0 °F - 48.9 °F 50% 29.82 in 10.0 mi SE 12.7 mph 18.4 mph N/A   Clear
10:53 PM 66.9 °F - 51.1 °F 57% 29.83 in 10.0 mi Variable 3.5 mph - N/A   Clear
11:53 PM 66.0 °F - 51.1 °F 59% 29.84 in 10.0 mi SE 3.5 mph - N/A   Clear